Погода в Лососинном

Россия / Республика Карелия     61°40′10″N   34°10′18″E
темп.,
°C
ветер,
м/с
пор.,
м/с
влажн.,
%
обл.,
%
осадки,
мм/ч
давл.,
гПа
погр.,
м
19 апреля, пн
пн1900:000всв11905 0.0 103415
03:00−1всв11880 0.0 103413
06:00−1всв13835 0.0 1034104
09:00+3в35600 0.0 1034328
12:00+5в46485 0.0 1033683
15:00+6в46485 0.0 1033788
18:00+5в37568 0.0 1031519
21:00+2в1270100 0.0 103130
20 апреля, вт
вт2000:00+1вюв1173100 0.0 103118
03:000вюв217980 0.0 103015
06:000юв23805 0.0 103058
09:00+5вюв36570 0.0 1029468
12:00+7вюв46510 0.0 1027973
15:00+7вюв56475 0.0 10261004
18:00+7вюв375053 0.0 1024742
21:00+2вюв2666100 0.0 1023118
21 апреля, ср
ср2100:00+2вюв2571100 0.0 1021110
03:00+1вюв247863 0.0 101994
06:00−1в268686 0.0 1017152
09:00+2в4869100 0.0 1014358
12:00+5в5957100 0.0 1010680
15:00+3вюв5973100 0.0 1008865
18:00+1всв31099100 2.9 1005359
21:00+1в3898100 4.3 1003341
22 апреля, чт
чт2200:00+1в12100100 0.4 1001109
03:00+1юз1199100 0.9 1000136
06:00+1юз1498100 0.7 1001256
09:00+1юз2699100 1.1 1002335
12:00+2юз3898100 0.2 1004326
15:00+4юз5884100 0.4 1006879
18:00+5юз4986100 0.1 1008728
21:00+3юз4119117 0.1 1010458
23 апреля, пт
пт2300:00+3ююз3991100 0.0 1011255
03:00+2ю3109281 0.0 1012223
06:00+2ююв3118825 0.0 1011251
09:00+6юв41382100 0.0 1010477
12:00+9юв51280100 0.0 1007914
15:00+10ююв61480100 0.0 10061191
18:00+5з4896100 1.4 1007424
21:00+3зсз2497100 10.1 1008332